Weather History for Chesapeake, VA

Change the Weather History Date:

Tuesday, February 14, 2012

  Actual Average (KORF) Record (KORF)
Temperature  
Mean Temperature 46 °F 42 °F  
Max Temperature 57 °F 51 °F 78 °F (1951)
Min Temperature 35 °F 34 °F 3 °F (1899)
Degree Days  
Heating Degree Days 19 23  
Month to date heating degree days 329  
Since 1 July heating degree days 2271  
Cooling Degree Days 0 0  
Month to date cooling degree days 0  
Year to date cooling degree days 0  
Moisture  
Dew Point 33 °F    
Average Humidity 63    
Maximum Humidity 81    
Minimum Humidity 36    
Precipitation  
Precipitation 0.00 in 0.11 in 2.68 in (1984)
Month to date precipitation 1.52  
Year to date precipitation 4.92  
Snow  
Snow 0.00 in 0.10 in 3.90 in (1965)
Month to date snowfall 1.2  
Since 1 July snowfall 4.8  
Snow Depth -    
Sea Level Pressure  
Sea Level Pressure 30.10 in    
Wind  
Wind Speed 3 mph (South)    
Max Wind Speed 15 mph    
Max Gust Speed 18 mph    
Visibility 10 miles    
Events      
T = Trace of Precipitation, MM = Missing Value Source: NWS Daily Summary

Daily Weather History Graph

Daily Weather History Graph

Search for Another Location

Airport:

Trip Planner

Search our weather history database for the weather conditions in past years. The results will help you decide how hot, cold, wet, or windy it might be!

Date:

Astronomy

Feb. 14, 2012 Rise Set
Actual Time 6:55 AM EST 5:44 PM EST
Civil Twilight 6:28 AM EST 6:10 PM EST
Nautical Twilight 5:58 AM EST 6:41 PM EST
Astronomical Twilight 5:28 AM EST 7:11 PM EST
Moon 12:34 AM EST (2/14) 10:51 AM EST (2/14)
Length of Visible Light 11h 42m
Length of Day
10h 49m
Waning Gibbous, 50% of the Moon is Illuminated
Feb 14
Waning Gibbous
Feb 14
Last Quarter
Feb 21
New
Feb 29
First Quarter
Mar 8
Full

Hourly Weather History & Observations

Time (EST) Temp. Windchill Dew Point Humidity Pressure Visibility Wind Dir Wind Speed Gust Speed Precip Events Conditions
12:15 AM 35.6 °F - 26.6 °F 70% 30.16 in 10.0 mi Calm Calm - N/A   Clear
12:55 AM 35.6 °F - 28.4 °F 75% 30.16 in 10.0 mi Calm Calm - N/A   Clear
1:15 AM 35.6 °F - 28.4 °F 75% 30.16 in 10.0 mi Calm Calm - N/A   Clear
1:35 AM 37.4 °F - 30.2 °F 75% 30.15 in 10.0 mi Calm Calm - N/A   Clear
1:55 AM 37.4 °F - 30.2 °F 75% 30.15 in 10.0 mi Calm Calm - N/A   Clear
2:15 AM 37.4 °F - 30.2 °F 75% 30.15 in 10.0 mi Calm Calm - N/A   Scattered Clouds
2:35 AM 37.4 °F - 30.2 °F 75% 30.14 in 10.0 mi Calm Calm - N/A   Scattered Clouds
2:55 AM 37.4 °F - 30.2 °F 75% 30.14 in 10.0 mi Calm Calm - N/A   Scattered Clouds
3:15 AM 37.4 °F - 30.2 °F 75% 30.14 in 10.0 mi Calm Calm - N/A   Scattered Clouds
3:35 AM 37.4 °F - 30.2 °F 75% 30.14 in 10.0 mi Calm Calm - N/A   Clear
4:15 AM 37.4 °F - 30.2 °F 75% 30.14 in 10.0 mi Calm Calm - N/A   Scattered Clouds
4:35 AM 37.4 °F - 30.2 °F 75% 30.13 in 10.0 mi Calm Calm - N/A   Clear
4:55 AM 37.4 °F - 30.2 °F 75% 30.14 in 10.0 mi Calm Calm - N/A   Scattered Clouds
5:15 AM 35.6 °F - 30.2 °F 81% 30.14 in 10.0 mi Calm Calm - N/A   Scattered Clouds
5:35 AM 37.4 °F - 30.2 °F 75% 30.14 in 10.0 mi Calm Calm - N/A   Scattered Clouds
5:55 AM 37.4 °F - 30.2 °F 75% 30.15 in 10.0 mi Calm Calm - N/A   Scattered Clouds
6:15 AM 39.2 °F - 30.2 °F 70% 30.14 in 10.0 mi Calm Calm - N/A   Mostly Cloudy
6:35 AM 37.4 °F - 30.2 °F 75% 30.15 in 7.0 mi Calm Calm - N/A   Overcast
7:15 AM 39.2 °F - 30.2 °F 70% 30.15 in 10.0 mi Calm Calm - N/A   Overcast
7:35 AM 39.2 °F 35.9 °F 30.2 °F 70% 30.15 in 10.0 mi SSE 4.6 mph - N/A   Overcast
7:55 AM 39.2 °F 37.0 °F 32.0 °F 75% 30.16 in 10.0 mi South 3.5 mph - N/A   Overcast
8:15 AM 39.2 °F 35.9 °F 32.0 °F 75% 30.17 in 10.0 mi South 4.6 mph - N/A   Mostly Cloudy
8:55 AM 42.8 °F - 30.2 °F 61% 30.16 in 10.0 mi Calm Calm - N/A   Scattered Clouds
9:15 AM 42.8 °F - 30.2 °F 61% 30.16 in 10.0 mi Calm Calm - N/A   Mostly Cloudy
9:55 AM 44.6 °F 39.2 °F 32.0 °F 61% 30.18 in 10.0 mi SSW 10.4 mph - N/A   Mostly Cloudy
10:15 AM 44.6 °F 40.7 °F 32.0 °F 61% 30.17 in 10.0 mi South 6.9 mph - N/A   Overcast
10:35 AM 46.4 °F - 30.2 °F 53% 30.15 in 10.0 mi Calm Calm - N/A   Overcast
10:55 AM 48.2 °F - 32.0 °F 54% 30.15 in 10.0 mi South 5.8 mph - N/A   Overcast
11:15 AM 48.2 °F - 32.0 °F 54% 30.13 in 10.0 mi South 5.8 mph - N/A   Overcast
11:35 AM 51.8 °F - 32.0 °F 47% 30.12 in 10.0 mi South 6.9 mph - N/A   Scattered Clouds
11:55 AM 51.8 °F - 32.0 °F 47% 30.12 in 10.0 mi SW 6.9 mph - N/A   Scattered Clouds
12:15 PM 53.6 °F - 33.8 °F 47% 30.10 in 10.0 mi SW 8.1 mph - N/A   Mostly Cloudy
12:35 PM 53.6 °F - 32.0 °F 44% 30.09 in 10.0 mi SSW 6.9 mph - N/A   Mostly Cloudy
12:55 PM 53.6 °F - 32.0 °F 44% 30.08 in 7.0 mi WSW 5.8 mph - N/A   Overcast
1:15 PM 53.6 °F - 32.0 °F 44% 30.06 in 10.0 mi SW 5.8 mph - N/A   Overcast
1:35 PM 53.6 °F - 33.8 °F 47% 30.06 in 10.0 mi SW 4.6 mph - N/A   Overcast
1:55 PM 55.4 °F - 32.0 °F 41% 30.05 in 10.0 mi SW 9.2 mph - N/A   Overcast
2:15 PM 55.4 °F - 30.2 °F 38% 30.04 in 7.0 mi SSW 10.4 mph 17.3 mph N/A   Overcast
2:35 PM 55.4 °F - 30.2 °F 38% 30.03 in 10.0 mi SW 9.2 mph 16.1 mph N/A   Overcast
2:55 PM 57.2 °F - 30.2 °F 36% 30.02 in 10.0 mi SSW 12.7 mph 18.4 mph N/A   Mostly Cloudy
3:15 PM 57.2 °F - 32.0 °F 38% 30.02 in 10.0 mi South 15.0 mph - N/A   Scattered Clouds
3:35 PM 57.2 °F - 33.8 °F 41% 30.02 in 10.0 mi SSW 11.5 mph - N/A   Clear
3:55 PM 57.2 °F - 35.6 °F 44% 30.02 in 10.0 mi South 13.8 mph 17.3 mph N/A   Scattered Clouds
4:15 PM 57.2 °F - 33.8 °F 41% 30.02 in 10.0 mi South 13.8 mph - N/A   Clear
4:35 PM 55.4 °F - 33.8 °F 44% 30.02 in 7.0 mi South 8.1 mph - N/A   Clear
4:55 PM 55.4 °F - 39.2 °F 54% 30.02 in 10.0 mi SSE 10.4 mph - N/A   Clear
5:15 PM 53.6 °F - 41.0 °F 62% 30.03 in 10.0 mi South 10.4 mph - N/A   Scattered Clouds
5:35 PM 53.6 °F - 41.0 °F 62% 30.04 in 10.0 mi SSE 8.1 mph - N/A   Mostly Cloudy
5:55 PM 51.8 °F - 39.2 °F 62% 30.05 in 10.0 mi South 6.9 mph - N/A   Overcast
6:15 PM 51.8 °F - 37.4 °F 58% 30.04 in 10.0 mi SSE 8.1 mph - N/A   Mostly Cloudy
6:35 PM 50.0 °F - 37.4 °F 62% 30.05 in 10.0 mi South 5.8 mph - N/A   Clear
7:15 PM 48.2 °F - 37.4 °F 66% 30.06 in 10.0 mi South 5.8 mph - N/A   Clear
7:35 PM 48.2 °F - 37.4 °F 66% 30.06 in 10.0 mi South 5.8 mph - N/A   Clear
8:15 PM 46.4 °F - 37.4 °F 71% 30.06 in 10.0 mi Calm Calm - N/A   Clear
8:35 PM 44.6 °F 41.4 °F 37.4 °F 76% 30.06 in 10.0 mi South 5.8 mph - N/A   Clear
8:55 PM 44.6 °F 43.1 °F 37.4 °F 76% 30.07 in 10.0 mi South 3.5 mph - N/A   Clear
9:15 PM 44.6 °F - 37.4 °F 76% 30.07 in 10.0 mi Calm Calm - N/A   Clear
9:35 PM 44.6 °F - 37.4 °F 76% 30.07 in 10.0 mi Calm Calm - N/A   Mostly Cloudy
9:55 PM 46.4 °F - 39.2 °F 76% 30.07 in 10.0 mi Calm Calm - N/A   Overcast
10:15 PM 46.4 °F 43.5 °F 39.2 °F 76% 30.07 in 10.0 mi South 5.8 mph - N/A   Overcast
10:35 PM 46.4 °F 43.5 °F 39.2 °F 76% 30.07 in 10.0 mi South 5.8 mph - N/A   Overcast
10:55 PM 46.4 °F 42.9 °F 39.2 °F 76% 30.07 in 10.0 mi SSW 6.9 mph - N/A   Overcast
11:15 PM 46.4 °F 42.9 °F 39.2 °F 76% 30.07 in 10.0 mi SSW 6.9 mph - N/A   Overcast
11:35 PM 46.4 °F 42.9 °F 39.2 °F 76% 30.07 in 10.0 mi SSW 6.9 mph - N/A   Overcast
11:55 PM 48.2 °F - 39.2 °F 71% 30.07 in 10.0 mi SSW 5.8 mph - N/A   Overcast